ヴィルト第4彗星

116P/Wild 4 (2016)

English version
Home page
Updated on October 8, 2017

---------------------------------------------------------------------

・ プロフィール

・ 写真集

・ 軌道要素

Epoch 2016 Jan. 13.0 TT = JDT 2457400.5
T 2016 Jan. 11.54718 TT                                 MPCW
q   2.1870915            (2000.0)            P               Q
n   0.15149108     Peri.  173.31372     -0.96889443     +0.24644503
a   3.4850687      Node    20.99523     -0.22986846     -0.86246976
e   0.3724395      Incl.    3.60817     -0.09167369     -0.44205289
P   6.51
From 2438 observations 2002 Nov. 16-2016 Oct. 11, mean residual 0".7.
     Nongravitational parameters A1 = +1.27, A2 = -0.0409.

・ 星図

・ 光度変化

        m1 = 3.5 + 5 logΔ + 25.0 log r

---------------------------------------------------------------------

軌道要素はM.P.E.C. 2016-V116に掲載されたものです。
星図はステラナビゲータ Ver.8 (アストロアーツ) で作成したものです。
光度グラフはComet for Windowsで作成したものです。

---------------------------------------------------------------------

Copyright(C) Seiichi Yoshida (comet@aerith.net). All rights reserved.